Regional Weather Roundup
Issued by NWS Sioux Falls, SD

Home | Current Version | Previous Version | Graphics & Text | Print | Product List | Glossary On
Versions: 1 2 3 4 5 6 7 8 9 10 11 12 13 14 15 16 17 18 19 20 21 22 23 24 25 26 27 28 29 30 31 32 33 34 35 36 37 38 39 40 41 42 43 44 45 46 47 48 49 50
000
ASUS43 KFSD 302102
RWRFSD

WEATHER ROUNDUP FOR SE SOUTH DAKOTA/SW MINNESOTA/NW IOWA
NATIONAL WEATHER SERVICE SIOUX FALLS SD
300 PM CST FRI JAN 30 2015

NOTE: "FAIR" INDICATES FEW OR NO CLOUDS BELOW 12,000 FEET WITH NO
SIGNIFICANT WEATHER AND OR OBSTRUCTIONS TO VISIBILITY.


SDZ038>040-050-052>070-302200-
SOUTHEAST SOUTH DAKOTA

CITY           SKY/WX    TMP DP  RH WIND       PRES   REMARKS
CHAMBERLAIN    NOT AVBL
HURON          SUNNY     44  29  55 S8        30.17F
MADISON        FAIR      36  34  93 S17       30.20S
MITCHELL       SUNNY     46  29  51 S12       30.18F
SIOUX FALLS    MOSUNNY   37  27  67 S21       30.23F
WINNER         FAIR      55  25  31 SW16G26   30.12F
YANKTON        SUNNY     45  27  49 S16       30.24F
$$

MNZ071-072-080-081-089-090-097-098-302200-
SOUTHWEST MINNESOTA

CITY           SKY/WX    TMP DP  RH WIND       PRES   REMARKS
FAIRMONT       SUNNY     30  19  64 S16       30.32F WCI  19
JACKSON        SUNNY     32  23  69 S14       30.30F WCI  22
LUVERNE        SUNNY     34  28  80 S15       30.26F WCI  24
MARSHALL       SUNNY     34  25  69 S14G22    30.25F WCI  24
MONTEVIDEO     SUNNY     32  25  74 SW14G21   30.24F WCI  22
PIPESTONE      SUNNY     32  27  80 S17         N/A  WCI  21
REDWOOD FALLS  MOSUNNY   31  21  66 S15       30.29F WCI  20
TRACY          SUNNY     34  27  74 S15G22    30.25F WCI  24
WINDOM         MOSUNNY   32  23  69 S14       30.28F WCI  22
WORTHINGTON    SUNNY     30  25  80 S17G23    30.27F WCI  18
$$

IAZ001>003-012>014-020>022-031-032-NEZ013-014-SDZ071-302200-
NORTHWEST IOWA

CITY           SKY/WX    TMP DP  RH WIND       PRES   REMARKS
ESTHERVILLE    SUNNY     30  22  72 S14       30.32F WCI  19
SIOUX CITY     SUNNY     40  27  59 S13       30.32F
SPENCER        SUNNY     34  23  64 S16       30.32F WCI  24
$$

ABBREVIATIONS USED IN REMARKS
   TC - TEMPERATURE IN CELSIUS
  WCI - WIND CHILL INDEX
   HX - HEAT INDEX
  VSB - VISIBILITY




USA.gov is the U.S. government's official web portal to all federal, state and local government web resources and services.